FENGYUN 1C DEB, 32086

Orbit data source: Space-Track

FENGYUN 1C DEB, 32086 is space debris in SSO originally from a launch on Mon, 10 May 1999 UTC launched from the Taiyaun Space Center, China (TSC). Fengyun 1C debris stems from the Chinese weather satellite Fengyun-1C, which was intentionally destroyed by a Chinese anti-satellite missile in 2007. This event dramatically increased the amount of space debris, with thousands of trackable fragments posing hazards to satellites and human spaceflight. The Fengyun 1C debris cloud has become a focal point in discussions about space sustainability and the need for international regulations to prevent the creation of new debris.

Loading next visibility...
Identifier
32086, 1999-025CQC
Orbit
SSO
Country
Flag of CNCN / PRC
Related business
Manufacturer
Unknown
Mission
Spacecraft
Bus & Motor
Unknown
Mass
Unknown
Launch date (UTC)
1999-05-10 (26 years ago)
Launch vehicle
Unknown
Launch site
Taiyaun Space Center, China (TSC)
Object type
Payload
Rocket body
Debris
Shape & HBR
Unknown shape, 0.1 m
Radar Cross Section
Small (<0.1 m²)

Expand to show TLE details & history
Last TLE update: 2 days ago

TLE from 2 days ago
0 FENGYUN 1C DEB
1 32086U 99025CQC 25302.89472396  .00003681  00000-0  31707-2 0  9992
2 32086  99.2711 359.4383 0300148 248.7982 108.0857 13.68556889611816
Epoch: 2025-10-29T21:28Z
TLE epoch observation values (Epoch: 2025-10-29T21:28:24.150Z)
Latitude
-0.00002°
Longitude
-1.12363°
Altitude
1,082.313 km
Speed
7.274 km/s
True Right ascension
23h 57m 45s
True Declination
0° 00' 00"
Sunlit
Object was in full shadow at epoch
Visualization orbit readout
Latitude
Unknown
Longitude
Unknown
Altitude
Unknown
Speed
Unknown
Apparent Right ascension
Unknown
Apparent Declination
Unknown
Sunlit
N/A
Visualization observer readout
Local Sidereal Time
01:17:39
Azimuth
Unknown
Elevation
Unknown
Doppler factor
Unknown
Orbital elements
Apogee altitude
1,223.521 km
Perigee altitude
780.494 km
Semi-major axis
7,380.145 km
Eccentricity
0.03001
Inclination
99.2711°
RAAN
359.4383°
Arg. of periapsis
248.7982°
True anomaly
111.31584°
Mean anomaly
108.0857°
Eccentric anomaly
109.70472°
Mean motion
3.42331 °/min
Orbital period
105.16 mins
BSTAR
0.0031707
Loading maneuver chart data...
Computing Atmospheric mass density...

Documentation

Showing up to 5 results
|